Location: Unspecified
(0.0000°N, 0.0000°E)
Time: 11:39:59
(UTC+00:00)

COSMOS 2508 - Pass Details

Date: 03 October 2020
Orbit: 1484 x 1504 km, 82.5° (Epoch: 26 October)

Event Time Altitude Azimuth Distance (km) Brightness Sun altitude
Rises 19:16:03 0° 197° (SSW) 4,624 ? -21.7°
Reaches altitude 10° 19:19:04 10° 202° (SSW) 3,645 ? -22.5°
Maximum altitude 19:27:20 47° 273° (W) 1,901 ? -24.6°
Drops below altitude 10° 19:35:39 10° 344° (NNW) 3,646 ? -26.6°
Sets 19:38:42 0° 350° (N) 4,626 ? -27.4°
